This demonstration page uses our WeatherBlox Daily Observations layout. Learn more.

Left ArrowRight Arrow

Hourly Observations for September 16, 2015

Temp ( °F °C ) Dew Point ( °F °C ) Humidity (%) Winds ( mph kmh ) Pressure ( in mb ) Visibility ( mi km ) Precip ( " mm )
12:53 am 00:53 Clear 76 24.4 58 14.4 54 54 SSW 10 17 29.84 1011 10 16 0.00 0.00
1:17 am 01:17 Mostly Clear with Thunderstorms 75 24 59 15 57 57 SW 7 11 29.85 1011 8 13 0.00 0.00
1:53 am 01:53 Mostly Cloudy 70 21.1 62 16.7 76 76 undefined N/A 29.86 1011 10 16 0.05 1.27
2:08 am 02:08 Mostly Cloudy with Nearby Thunderstorms 72 22 61 16 69 69 undefined N/A 29.85 1011 10 16 0.00 0.00
2:23 am 02:23 Mostly Cloudy 70 21 63 17 78 78 undefined N/A 29.88 1012 10 16 0.00 0.00
2:53 am 02:53 Mostly Cloudy with Light Rain 71 21.7 60 15.6 68 68 undefined N/A 29.85 1011 10 16 0.00 0.03
3:20 am 03:20 Cloudy with Thunderstorms 70 21 61 16 73 73 S 13 20 29.88 1012 9 14 0.00 0.00
3:43 am 03:43 Cloudy with Light Rain 69 20.6 62 16.7 78 78 S 15 24 29.88 1012 7 11 0.08 2.03
3:53 am 03:53 Cloudy with Thunderstorms 68 20 63 17.2 84 84 S 13 20 29.88 1012 10 16 0.08 2.03
4:53 am 04:53 Cloudy with Thunderstorms 70 21.1 63 17.2 79 79 SE 12 19 29.85 1011 10 16 0.01 0.25
5:05 am 05:05 Mostly Cloudy with Nearby Thunderstorms 69 20.6 63 17.2 81 81 SE 10 17 29.85 1011 10 16 0.00 0.00
5:16 am 05:16 Mostly Clear 69 20.6 63 17.2 81 81 SE 13 20 29.85 1011 10 16 0.00 0.00
5:53 am 05:53 Clear 68 20 63 17.2 84 84 SE 10 17 29.85 1011 10 16 0.00 0.00
6:53 am 06:53 Clear 68 20 64 17.8 87 87 SE 10 17 29.84 1010 10 16 0.00 0.00
7:53 am 07:53 Sunny 68 20 65 18.3 90 90 SE 10 17 29.83 1010 10 16 0.00 0.00
8:53 am 08:53 Sunny 70 21.1 66 18.9 87 87 SSE 10 17 29.85 1011 10 16 0.00 0.00
9:53 am 09:53 Sunny 74 23.3 67 19.4 79 79 S 15 24 29.82 1010 10 16 0.00 0.00
10:53 am 10:53 Sunny 77 25 66 18.9 69 69 S 16 26 29.80 1009 10 16 0.00 0.00
11:53 am 11:53 Sunny 82 27.8 66 18.9 58 58 S 14 22 29.79 1009 10 16 0.00 0.00
12:53 pm 12:53 Sunny 83 28.3 66 18.9 57 57 SSW 17 28 29.77 1008 10 16 0.00 0.00
1:53 pm 13:53 Sunny 85 29.4 67 19.4 55 55 S 16 26 29.77 1008 10 16 0.00 0.00
2:53 pm 14:53 Sunny 87 30.6 67 19.4 51 51 S 20 31 29.75 1007 10 16 0.00 0.00
3:53 pm 15:53 Sunny 87 30.6 66 18.9 50 50 S 16 26 29.73 1007 10 16 0.00 0.00
4:53 pm 16:53 Sunny 88 31.1 65 18.3 46 46 S 20 31 29.72 1007 10 16 0.00 0.00
5:53 pm 17:53 Sunny 88 31.1 67 19.4 50 50 S 17 28 29.71 1006 10 16 0.00 0.00
6:53 pm 18:53 Sunny 87 30.6 66 18.9 50 50 S 15 24 29.70 1006 10 16 0.00 0.00
7:53 pm 19:53 Clear 85 29.4 66 18.9 53 53 SSE 13 20 29.70 1006 10 16 0.00 0.00
8:53 pm 20:53 Clear 83 28.3 66 18.9 57 57 SSE 18 30 29.71 1006 10 16 0.00 0.00
9:53 pm 21:53 Clear 83 28.3 65 18.3 55 55 SSE 17 28 29.71 1006 10 16 0.00 0.00
10:53 pm 22:53 Clear 81 27.2 64 17.8 57 57 SSE 16 26 29.72 1006 10 16 0.00 0.00
11:53 pm 23:53 Clear 78 25.6 64 17.8 62 62 SSE 14 22 29.72 1007 10 16 0.00 0.00

Powered by AerisWeather